Location: Marysville Observatory
(48.1092°N, 122.1645°W)
Time: 17:01:49
(UTC-07:00)

Amateur Radio Satellites - All Passes

Search period start: 20 September 2014 16:31
Search period end: 21 September 2014 16:31
Location: Marysville Observatory, 48.1092°N, 122.1645°W

Satellite Date Start Highest point End Downlink Frequencies (MHz)
Time Altitude Azimuth
JAS-2 20 Sep 16:32:58 16:36:21 18° 56° (NE) 16:39:47 435.800 - 435.900 CW/SSB, 435.910 FM
Uosat F 20 Sep 16:41:03 16:46:03 77° 256° (WSW) 16:51:05 435.120 FM
TMSAT-1 20 Sep 16:44:08 16:47:39 18° 271° (W) 16:51:11 436.925 FM
Sapphire 20 Sep 16:49:17 16:50:12 10° 353° (N) 16:51:07 437.095 MHz 1200 baud AX-25 AFSK
MaSat-1 20 Sep 16:51:05 16:54:32 26° 46° (NE) 16:57:35 437.345 MHz
Saudisat 1A 20 Sep 16:57:31 17:01:08 25° 116° (ESE) 17:04:47 436.775 MHz
Hamsat 20 Sep 17:06:27 17:09:55 23° 64° (ENE) 17:13:22 145.90 MHz
OPAL 20 Sep 17:42:54 17:47:51 43° 101° (E) 17:52:42 ?
KITSAT 1 20 Sep 17:54:15 17:57:05 12° 97° (E) 17:59:55 435.175 FM
JAS-2 20 Sep 18:15:42 18:20:55 74° 257° (WSW) 18:26:09 435.800 - 435.900 CW/SSB, 435.910 FM
AO-7 20 Sep 18:15:52 18:21:59 22° 271° (W) 18:28:08 29.400 - 29.500 MHz
Uosat F 20 Sep 18:24:40 18:25:41 11° 274° (W) 18:26:43 435.120 FM
MaSat-1 20 Sep 18:27:49 18:31:20 33° 250° (WSW) 18:34:23 437.345 MHz
Sapphire 20 Sep 18:33:39 18:36:14 13° 20° (NNE) 18:38:48 437.095 MHz 1200 baud AX-25 AFSK
Saudisat 1A 20 Sep 18:36:12 18:40:29 49° 315° (NW) 18:44:48 436.775 MHz
Hamsat 20 Sep 18:41:31 18:45:39 42° 262° (W) 18:49:49 145.90 MHz
PCSat 20 Sep 19:00:19 19:03:49 17° 27° (NNE) 19:07:19 145.825 MHz
OPAL 20 Sep 19:22:04 19:26:35 31° 300° (WNW) 19:31:02 ?
SO-67 20 Sep 19:22:33 19:26:00 88° 77° (ENE) 19:29:29 435.3500 MHz FM
KITSAT 1 20 Sep 19:42:54 19:50:46 59° 117° (ESE) 19:58:39 435.175 FM
HO-68 20 Sep 19:43:33 19:49:32 30° 55° (NE) 19:55:33 435.675 MHz FM
STRAND 1 20 Sep 20:04:20 20:09:29 71° 103° (ESE) 20:14:37 ?
Sapphire 20 Sep 20:16:17 20:21:18 36° 44° (NE) 20:26:19 437.095 MHz 1200 baud AX-25 AFSK
Saudisat 1A 20 Sep 20:18:38 20:21:06 15° 337° (NNW) 20:23:34 436.775 MHz
Oscar 11 20 Sep 20:21:55 20:23:23 12° 56° (ENE) 20:24:51 145.825 FM, Beacon 2401.500 USB
UKube-1 20 Sep 20:37:47 20:41:05 22° 62° (ENE) 20:44:24 145.840 MHz, 145.915 MHz
PCSat 20 Sep 20:43:05 20:48:27 56° 50° (NE) 20:53:47 145.825 MHz
AO-40 20 Sep 21:21:19 03:09:49 35° 181° (S) 06:28:55 Beacon 2401.320
HO-68 20 Sep 21:29:40 21:36:46 68° 256° (WSW) 21:43:55 435.675 MHz FM
KITSAT 1 20 Sep 21:38:46 21:46:28 46° 320° (NW) 21:54:13 435.175 FM
STRAND 1 20 Sep 21:44:33 21:48:10 20° 302° (WNW) 21:51:47 ?
FUNcube-1 20 Sep 21:48:19 21:52:17 32° 66° (ENE) 21:56:20 145.950 - 145.970 MHz USB
Oscar 11 20 Sep 21:54:28 21:58:50 82° 75° (ENE) 22:03:15 145.825 FM, Beacon 2401.500 USB
Sapphire 20 Sep 21:59:41 22:04:53 47° 244° (WSW) 22:10:02 437.095 MHz 1200 baud AX-25 AFSK
UKube-1 20 Sep 22:12:51 22:17:01 46° 260° (W) 22:21:13 145.840 MHz, 145.915 MHz
PCSat 20 Sep 22:27:02 22:31:34 28° 250° (WSW) 22:36:04 145.825 MHz
Oscar 10/S400 20 Sep 22:38:28 23:12:36 49° 191° (S) 06:34:25 145.825 - 145.975 CW/USB, Beacon 145.810 USB
SO-50 20 Sep 22:45:20 22:49:45 58° 123° (ESE) 22:54:18 436.795 FM
HO-68 20 Sep 23:22:38 23:25:49 13° 276° (W) 23:29:02 435.675 MHz FM
FUNcube-1 20 Sep 23:24:43 23:28:40 31° 265° (W) 23:32:43 145.950 - 145.970 MHz USB
Oscar 11 20 Sep 23:34:04 23:35:38 12° 273° (W) 23:37:11 145.825 FM, Beacon 2401.500 USB
KITSAT 1 20 Sep 23:37:58 23:44:10 23° 348° (NNW) 23:50:22 435.175 FM
Saudisat 1A 20 Sep 23:41:13 23:44:03 16° 26° (NNE) 23:46:53 436.775 MHz
UOSAT-12 21 Sep 00:15:28 00:19:50 43° 120° (ESE) 00:24:18 437.025 FM, 437.400 FM
SO-50 21 Sep 00:26:42 00:30:38 28° 324° (NW) 00:34:40 436.795 FM
Oscar 19 21 Sep 01:17:46 01:19:20 11° 85° (E) 01:20:55 437.125 CW, 437.150 USB
Saudisat 1A 21 Sep 01:20:06 01:24:31 62° 48° (NE) 01:28:53 436.775 MHz
KITSAT 1 21 Sep 01:36:14 01:42:41 25° 18° (NNE) 01:49:08 435.175 FM
Oscar 16 21 Sep 01:54:45 01:59:02 25° 93° (E) 02:03:16 437.025 USB, Beacon 2401.1428
UOSAT-12 21 Sep 01:55:47 02:00:05 35° 320° (NW) 02:04:28 437.025 FM, 437.400 FM
AO-Echo 21 Sep 01:56:55 01:59:04 13° 88° (E) 02:01:14 ?
SO-50 21 Sep 02:11:00 02:12:46 12° 348° (NNW) 02:14:33 436.795 FM
ISS 21 Sep 02:33:24 02:36:04 23° 141° (SE) 02:38:46 145.800 FM
Gurwin Techsat 1B 21 Sep 02:39:41 02:42:32 14° 87° (E) 02:45:23 435.225 FM
ITAMSAT 1 21 Sep 02:41:12 02:45:41 28° 94° (E) 02:50:09 435.822 SSB
Uribyol 2 21 Sep 02:44:54 02:49:34 32° 95° (E) 02:54:13 436.500 FM
JAS-1B 21 Sep 02:52:57 02:58:23 40° 97° (E) 03:03:43 435.800 - 435.900 CW/SSB
Oscar 19 21 Sep 02:54:20 02:59:33 79° 104° (ESE) 03:04:42 437.125 CW, 437.150 USB
Saudisat 1A 21 Sep 03:00:30 03:03:41 20° 247° (WSW) 03:06:52 436.775 MHz
TMSAT-1 21 Sep 03:14:48 03:18:53 22° 91° (E) 03:22:56 436.925 FM
AO-27 21 Sep 03:16:16 03:21:25 56° 101° (E) 03:26:32 436.795 MHz FM
OPAL 21 Sep 03:24:20 03:28:05 21° 55° (NE) 03:31:51 ?
KITSAT 1 21 Sep 03:32:05 03:40:02 56° 45° (NE) 03:47:56 435.175 FM
AO-Echo 21 Sep 03:33:38 03:38:29 88° 285° (WNW) 03:43:28 ?
Oscar 16 21 Sep 03:33:38 03:38:38 49° 292° (WNW) 03:43:35 437.025 USB, Beacon 2401.1428
UOSAT-12 21 Sep 03:39:17 03:41:37 13° 343° (NNW) 03:43:57 437.025 FM, 437.400 FM
SO-50 21 Sep 03:53:29 03:55:26 12° 13° (NNE) 03:57:24 436.795 FM
RS-15 21 Sep 03:58:01 04:08:03 43° 110° (ESE) 04:17:59 29.354 - 29.394 USB, Beacon 29.352 USB
ISS 21 Sep 04:09:10 04:12:30 80° 339° (NNW) 04:15:51 145.800 FM
Gurwin Techsat 1B 21 Sep 04:17:53 04:23:14 87° 286° (WNW) 04:28:33 435.225 FM
AO-7 21 Sep 04:18:09 04:24:34 24° 91° (E) 04:30:57 29.400 - 29.500 MHz
ITAMSAT 1 21 Sep 04:20:24 04:25:22 45° 293° (WNW) 04:30:18 435.822 SSB
Uribyol 2 21 Sep 04:24:16 04:29:08 40° 294° (WNW) 04:33:58 436.500 FM
Oscar 19 21 Sep 04:34:52 04:38:18 18° 303° (WNW) 04:41:42 437.125 CW, 437.150 USB
JAS-1B 21 Sep 04:43:55 04:49:04 33° 299° (WNW) 04:54:03 435.800 - 435.900 CW/SSB
Uosat F 21 Sep 04:45:37 04:49:45 25° 93° (E) 04:53:51 435.120 FM
TMSAT-1 21 Sep 04:53:58 04:59:12 59° 290° (WNW) 05:04:24 436.925 FM
AO-27 21 Sep 04:56:26 05:00:35 25° 300° (WNW) 05:04:43 436.795 MHz FM
OPAL 21 Sep 05:01:14 05:06:26 73° 254° (WSW) 05:11:41 ?
AO-Echo 21 Sep 05:14:05 05:16:37 14° 304° (WNW) 05:19:10 ?
JAS-2 21 Sep 05:21:23 05:23:57 13° 86° (E) 05:26:36 435.800 - 435.900 CW/SSB, 435.910 FM
UOSAT-12 21 Sep 05:22:20 05:23:51 11° 8° (N) 05:25:21 437.025 FM, 437.400 FM
KITSAT 1 21 Sep 05:27:47 05:35:20 45° 247° (WSW) 05:42:50 435.175 FM
SO-50 21 Sep 05:33:20 05:37:31 29° 37° (NE) 05:41:46 436.795 FM
ISS 21 Sep 05:46:16 05:49:29 43° 359° (N) 05:52:41 145.800 FM
STRAND 1 21 Sep 05:46:20 05:50:17 23° 60° (ENE) 05:54:15 ?
Gurwin Techsat 1B 21 Sep 05:59:20 06:02:28 16° 305° (NW) 06:05:36 435.225 FM
RS-15 21 Sep 06:08:57 06:19:53 68° 315° (NW) 06:30:51 29.354 - 29.394 USB, Beacon 29.352 USB
AO-7 21 Sep 06:10:00 06:18:20 85° 291° (WNW) 06:26:38 29.400 - 29.500 MHz
Hamsat 21 Sep 06:23:52 06:27:30 27° 94° (E) 06:31:04 145.90 MHz
Uosat F 21 Sep 06:23:57 06:28:47 48° 292° (WNW) 06:33:36 435.120 FM
TMSAT-1 21 Sep 06:36:37 06:38:04 11° 309° (NW) 06:39:31 436.925 FM
OPAL 21 Sep 06:45:02 06:46:13 11° 273° (W) 06:47:24 ?
UOSAT-12 21 Sep 07:01:53 07:05:43 23° 32° (NNE) 07:09:30 437.025 FM, 437.400 FM
JAS-2 21 Sep 07:03:53 07:09:52 72° 103° (ESE) 07:16:38 435.800 - 435.900 CW/SSB, 435.910 FM
SO-50 21 Sep 07:13:41 07:18:25 59° 237° (WSW) 07:23:11 436.795 FM
ISS 21 Sep 07:23:09 07:26:29 70° 19° (NNE) 07:29:48 145.800 FM
STRAND 1 21 Sep 07:24:07 07:29:07 57° 259° (W) 07:34:10 ?
Hamsat 21 Sep 07:59:40 08:03:30 33° 292° (WNW) 08:07:18 145.90 MHz
AO-7 21 Sep 08:03:45 08:10:05 26° 313° (NW) 08:16:26 29.400 - 29.500 MHz
MaSat-1 21 Sep 08:15:23 08:20:05 42° 112° (ESE) 08:24:41 437.345 MHz
SO-67 21 Sep 08:15:35 08:19:02 64° 101° (E) 08:22:27 435.3500 MHz FM
RS-15 21 Sep 08:24:49 08:34:35 35° 346° (NNW) 08:44:31 29.354 - 29.394 USB, Beacon 29.352 USB
UOSAT-12 21 Sep 08:41:40 08:46:26 82° 233° (SW) 08:51:07 437.025 FM, 437.400 FM
JAS-2 21 Sep 08:49:56 08:54:34 24° 300° (WNW) 08:59:36 435.800 - 435.900 CW/SSB, 435.910 FM
HO-68 21 Sep 08:54:26 08:59:27 20° 88° (E) 09:04:26 435.675 MHz FM
ISS 21 Sep 09:00:06 09:03:00 28° 217° (SW) 09:05:53 145.800 FM
Oscar 11 21 Sep 09:40:38 09:42:16 12° 87° (E) 09:43:54 145.825 FM, Beacon 2401.500 USB
SO-67 21 Sep 09:50:32 09:51:34 11° 299° (WNW) 09:52:37 435.3500 MHz FM
MaSat-1 21 Sep 09:52:23 09:56:55 34° 310° (NW) 10:01:17 437.345 MHz
UKube-1 21 Sep 09:57:50 10:01:18 23° 94° (E) 10:04:44 145.840 MHz, 145.915 MHz
UOSAT-12 21 Sep 10:23:51 10:25:49 13° 252° (WSW) 10:27:46 437.025 FM, 437.400 FM
RS-15 21 Sep 10:40:33 10:50:38 39° 21° (NNE) 11:00:57 29.354 - 29.394 USB, Beacon 29.352 USB
HO-68 21 Sep 10:40:51 10:48:05 89° 289° (WNW) 10:55:17 435.675 MHz FM
Sapphire 21 Sep 11:04:57 11:07:19 13° 103° (ESE) 11:09:42 437.095 MHz 1200 baud AX-25 AFSK
FUNcube-1 21 Sep 11:09:41 11:14:06 42° 97° (E) 11:18:26 145.950 - 145.970 MHz USB
Oscar 11 21 Sep 11:14:40 11:19:03 80° 285° (WNW) 11:23:22 145.825 FM, Beacon 2401.500 USB
PCSat 21 Sep 11:29:36 11:33:45 23° 108° (ESE) 11:37:56 145.825 MHz
UKube-1 21 Sep 11:33:33 11:37:40 42° 291° (WNW) 11:41:47 145.840 MHz, 145.915 MHz
JAS-1B 21 Sep 11:55:11 11:58:39 14° 49° (NE) 12:01:53 435.800 - 435.900 CW/SSB
ITAMSAT 1 21 Sep 12:27:51 12:29:13 11° 51° (NE) 12:30:36 435.822 SSB
HO-68 21 Sep 12:29:35 12:34:56 23° 309° (NW) 12:40:17 435.675 MHz FM
Uribyol 2 21 Sep 12:30:44 12:32:48 12° 52° (NE) 12:34:52 436.500 FM
Oscar 19 21 Sep 12:36:49 12:41:03 26° 61° (ENE) 12:45:17 437.125 CW, 437.150 USB
Sapphire 21 Sep 12:44:26 12:49:50 78° 122° (ESE) 12:55:17 437.095 MHz 1200 baud AX-25 AFSK
FUNcube-1 21 Sep 12:46:27 12:50:17 26° 296° (WNW) 12:54:05 145.950 - 145.970 MHz USB
Oscar 11 21 Sep 12:53:13 12:54:29 11° 304° (NW) 12:55:44 145.825 FM, Beacon 2401.500 USB
RS-15 21 Sep 12:53:42 13:04:50 81° 50° (NE) 13:16:22 29.354 - 29.394 USB, Beacon 29.352 USB
AO-27 21 Sep 13:00:35 13:04:18 20° 58° (ENE) 13:08:01 436.795 MHz FM
PCSat 21 Sep 13:11:20 13:16:43 66° 308° (NW) 13:22:09 145.825 MHz
AO-Echo 21 Sep 13:12:57 13:16:43 24° 62° (ENE) 13:20:28 ?
Oscar 16 21 Sep 13:14:58 13:19:59 52° 69° (ENE) 13:25:03 437.025 USB, Beacon 2401.1428
AO-7 21 Sep 13:33:34 13:37:42 15° 35° (NE) 13:41:49 29.400 - 29.500 MHz
JAS-1B 21 Sep 13:40:12 13:48:09 58° 68° (ENE) 13:54:50 435.800 - 435.900 CW/SSB
ITAMSAT 1 21 Sep 14:02:37 14:07:42 60° 70° (ENE) 14:12:49 435.822 SSB
Gurwin Techsat 1B 21 Sep 14:03:38 14:08:19 33° 64° (ENE) 14:13:01 435.225 FM
Uribyol 2 21 Sep 14:06:13 14:11:21 68° 72° (ENE) 14:16:31 436.500 FM
Oscar 19 21 Sep 14:15:02 14:20:06 52° 260° (W) 14:25:12 437.125 CW, 437.150 USB
Sapphire 21 Sep 14:29:24 14:33:52 25° 323° (NW) 14:38:22 437.095 MHz 1200 baud AX-25 AFSK
AO-27 21 Sep 14:38:10 14:43:19 70° 257° (WSW) 14:48:31 436.795 MHz FM
TMSAT-1 21 Sep 14:38:50 14:43:52 47° 68° (ENE) 14:48:57 436.925 FM
AO-Echo 21 Sep 14:50:44 14:55:16 46° 261° (W) 14:59:48 ?
Oscar 16 21 Sep 14:55:28 14:59:39 24° 268° (W) 15:03:51 437.025 USB, Beacon 2401.1428
PCSat 21 Sep 14:57:26 15:01:12 19° 330° (NNW) 15:04:58 145.825 MHz
RS-15 21 Sep 15:06:46 15:16:12 34° 254° (WSW) 15:25:59 29.354 - 29.394 USB, Beacon 29.352 USB
AO-7 21 Sep 15:20:43 15:28:31 47° 59° (ENE) 15:36:18 29.400 - 29.500 MHz
JAS-1B 21 Sep 15:31:38 15:38:59 34° 264° (W) 15:45:19 435.800 - 435.900 CW/SSB
Gurwin Techsat 1B 21 Sep 15:43:13 15:48:12 41° 263° (W) 15:53:13 435.225 FM
ITAMSAT 1 21 Sep 15:43:46 15:47:36 21° 269° (W) 15:51:29 435.822 SSB
Uribyol 2 21 Sep 15:47:47 15:51:20 18° 270° (W) 15:54:54 436.500 FM
Uosat F 21 Sep 16:02:11 16:06:59 50° 69° (ENE) 16:11:50 435.120 FM
Sapphire 21 Sep 16:17:49 16:19:20 11° 348° (NNW) 16:20:52 437.095 MHz 1200 baud AX-25 AFSK
TMSAT-1 21 Sep 16:19:33 16:24:01 27° 267° (W) 16:28:31 436.925 FM
